Погода Николаевск-
на-Амуре

Погода Николаевск-
на-Амуре : погода сейчас, прогноз погоды и архив. Всё, что Вы хотите узнать о погоде Николаевск-
на-Амуре!

Хотите узнать прогноз погоды Николаевск-
на-Амуре? Тогда Вам сюда: Погода Николаевск-
на-Амуре

Поиск расширенной информации на нашем сайте:

Другие новости

Новости СМИ2

Главная страница сайта

Новости сайта

03.07.2017

Напоминаем, что на нашем специализированном сайте Метеоцентр.Азия вы можете получить высокодетализированные автоматические прогнозы погоды по пунктам России, СНГ и мира в авиационном формате (включающие направление и скорость ветра, видимость, явления погоды, количество и форму облачности, нижнюю и верхнюю границу облачности).


Погода Николаевск-
на-Амуре - сегодня

Время (UTC), дата Ветер
(°,м/с) 
Видим.   Явления Облачность Т
(°С)
Тd
(°С)
f(%) Тe
(°С)
Pmin
(гПа)
dP
(гПа)
Po
(мм)
O2
(г/м3)
Тmin Tmax R s Состояние
почвы
06 12.12.17 270 (З) 1000 м  ливневой снег  10/10 600 м кучево-дожд. 
[Cb cap]
-9 -10.6 88 -12  1007.6  0.9  751  314           
09 12.12.17 280 (З) 1000 м  ливневой снег  10/10 600 м кучево-дожд. 
[Cb cap]
-8.3 -9.8 89 -11  1008.6  752  313    -8.3     
12 12.12.17 270 (З) 1000 м  ливневой снег  10/10 600 м кучево-дожд. 
[Cb cap]
-7.8 -9.2 90 -11  1009.5  0.9  753  313           
15 12.12.17 250 (З) 1000 м  ливневой снег  10/10 600 м кучево-дожд. 
[Cb cap]
-6.7 -8 90 -9  1010.2  0.8  753  312           
18 12.12.17 020 (С) 2000 м  слаб. ливневой снег  10/10 600 м кучево-дожд. 
[Cb cap]
-1.7 -2.9 91 -4  1012  1.9  755  306           
21 12.12.17 330 (СЗ) 2000 м  слаб. ливневой снег  10/10 600 м кучево-дожд. 
[Cb cap]
-1.6 -2.7 92 -3  1014.1  756  307  -8.4    64  равномерный
сухой снег
100% 
00 13.12.17 360 (С) 1000 м  ливневой снег  10/10 600 м кучево-дожд. 
[Cb cap]
-1.5 -2.6 92 -2  1016.6  2.5  758  307           
03 13.12.17 320 (СЗ) 2000 м  ливневой снег  10/10 600 м кучево-дожд. 
[Cb cap]
-1.6 -3.2 89 -4  1017.8  1.3  759  308           
06 13.12.17 320 (СЗ) 2000 м  ливневой снег  10/10 600 м кучево-дожд. 
[Cb cap]
-2.9 -5.3 83 -6  1019.7  1.8  760  310           
09 13.12.17 250 (З) 1000 м  ливневой снег  10/10 600 м кучево-дожд. 
[Cb cap]
-6.7 -8.3 88 -9  1021.8  762  316    -1.1     
12 13.12.17 240 (ЮЗ) 2000 м  слаб. ливневой снег  10/10 600 м кучево-дожд. 
[Cb cap]
-8.3 -10.7 83 -12  1022.3  0.4  762  318           
15 13.12.17 260 (З) 2000 м  слаб. ливневой снег  10/10 600 м кучево-дожд. 
[Cb cap]
-9.2 -10.6 90 -13  1022.8  0.4  763  319           
18 13.12.17 270 (З) 4000 м  слаб. ливневой снег  10/10 600 м кучево-дожд. 
[Cb cap]
-9.7 -12 83 -14  1022.8  763  320           
21 13.12.17 280 (З) 20000 м  {ливн. осадки}  6/3 600 м кучево-дожд., верхняя 
[Cb cap|Ci sp]
-11.3 -13.7 82 -14  1022.3  -0.5  762  322  -11.3    63  равномерный
сухой снег
100% 
00 14.12.17 290 (З) 20000 м  {ливн. осадки}  6/1 600 м верхняя 
[Sc diur, vesp|Ci sp]
-13.8 -16.5 80 -18  1022.4  0.1  762  325  -13.9         
03 14.12.17 260 (З) 20000 м    8/3 600 м верхняя 
[Sc|Ci sp]
-13.2 -16.7 75 -18  1021.3  -1.1  761  324           
06 14.12.17 260 (З) 20000 м    10/8 600 м верхняя 
[Sc|Ci sp]
-13.6 -17.4 73 -14  1021.2  0.1  761  324           
09 14.12.17 240 (ЮЗ) 20000 м    10/0 средняя 
[As op]
-13.4 -17.2 73 -18  1021.2  761  324    -11.3       
12 14.12.17 250 (З) 20000 м    ясно 
-15.9 -19.9 71 -18  1020.9  -0.3  761  327           
15 14.12.17 260 (З) 20000 м    ясно 
-18.8 -21.5 79 -23  1020.4  -0.5  761  331           
18 14.12.17 250 (З) 20000 м    ясно 
-21.6 -24.3 79 -26  1020.2  -0.3  760  334           
21 14.12.17 250 (З) 20000 м    3/0 верхняя 
[Ci sp]
-24.3 -27.3 76 -27  1019.6  -0.6  760  338  -24.5      62  равномерный
сухой снег
100% 
00 15.12.17 260 (З) 20000 м    3/3 300 м 
[Sc]
-23 -25.9 77 -26  1019.2  -0.4  760  336           
03 15.12.17 270 (З) 20000 м    ясно 
-20.4 -23.1 79 -21  1017.7  -1.5  759  332           
06 15.12.17 230 (ЮЗ) 20000 м    ясно 
-19.2 -21.9 79 -22  1016.7  -0.9  758  330           
Время (UTC), дата Ветер
(°,м/с) 
Видим.   Явления Облачность Т
(°С)
Тd
(°С)
f(%) Тe
(°С)
Pmin
(гПа)
dP
(гПа)
Po
(мм)
O2
(г/м3)
Тmin Tmax R s Состояние
почвы

Для получения пояснительной информации подведите курсор к названию столбца.

ПОГОДА Николаевск-
на-Амуре - архив

Всё, что Вы хотите узнать о погоде Николаевск-
на-Амуре - удобно и подробно!

Выберите нужную дату (начиная с 1 января 2015* года) и нажмите кнопку "Найти".
Будут отображены архивные сводки погоды по пункту Николаевск-
на-Амуре, начиная с указанной даты.


Отображать данные в формате CSV (для использования в таблицах Excel)


Внимание! Наш архив погоды предназначен исключительно для личного некоммерческого использования в познавательных целях. Если Вам необходимы официальные справки о состоянии погоды (для производственных, юридических, коммерческих и т.п. целей), обращайтесь в органы Росгидромета.

*Примечание: данная дата относится к архиву по метеостанциям СССР (Россия, СНГ, Балтия).
Архив по метеостанциям Зарубежной Европы и Азии (кроме Китая) хранится 10 дней, по другим регионам земного шара (Китай, Африка, Америка, Австралия, Океания) - 1 день.

Николаевск-
на-Амуре - район местоположения метеостанции


Название, широта, долгота, высота метеостанции:
Николаевск-на-Амуре 53.2°ш. 140.7°д. 68 м над ур. моря [Российская Федерация]

Дополнительная информация

В oтличие oт бoльшинства пoгoдных сайтoв мы публикуем пoдрoбную метеoинфoрмацию в детальнoм прoфессиoнальнoм фoрмате.

Характеристики температуры и влажнoсти вoздуха измеряются на высoте 2 м в тени вдали oт зданий и деревьев.
Скoрoсть ветра измеряется на высoте 10 м (на урoвне рoста челoвека скoрoсть ветра ниже в 1.5-2 раза). Если метеoстанция нахoдится в гoрoде или в лесу, тo скoрoсть ветра занижена на 2-4 м/с пo сравнению с oткрытым местoм. Скoрoсть ветра над акватoриями крупных рек и oзёр, а также на вершинах хoлмoв на 2-5 м/с выше, чем в oбычных услoвиях.
Атмoсфернoе давление в разных тoчках местнoсти мoжет значительнo oтличаться oт давления на метеoстанции, в зависимoсти oт услoвий рельефа (при пoдъёме на 10 м давление пoнижается примернo на 1 мм рт.ст.).